Home   Weather   Cuxhaven   Past weeks

Flag for Germany Past Weather in Cuxhaven, Lower Saxony, Germany — Yesterday and Last 2 Weeks

Now
39 °F

Passing clouds.


Feels Like: 34 °F
Forecast: 37 / 48 °F
Wind: 8 mph from Southwest

Location: Nordholz

Current Time: Apr 26, 2017 at 12:52:48 am

Latest Report: Apr 26, 2017 at 12:20 am


Visibility: N/A

Pressure: 29.77 "Hg

Humidity: 87%

Dew Point: 36 °F

Location of CuxhavenLocation

Past Weather in Cuxhaven — Graph

°F

Cuxhaven Temperature Yesterday

Maximum temperature yesterday: 46 °F (at 6:20 pm)
Minimum temperature yesterday: 37 °F (at 3:20 am)
Average temperature yesterday: 40 °F

High & Low Weather Summary for the Past Weeks

 TemperatureHumidityPressure
High55 °F (Apr 21, 12:20 pm)100% (Apr 12, 2:50 pm)30.63 "Hg (Apr 12, 2:50 pm)
Low28 °F (Apr 19, 4:20 am)39% (Apr 19, 12:20 pm)29.56 "Hg (Apr 25, 5:36 am)
Average44 °F76%30.06 "Hg
* Reported Apr 10 11:20 pm — Apr 25 11:20 pm, Cuxhaven, Weather by CustomWeather, © 2017

Note: Actual official high and low records may vary slightly from our data, if they occured in-between our weather recording intervals... More about our weather records

Advertising

Cuxhaven Weather History for the Previous 24 Hours

Scroll right to see more
 ConditionsComfort  
Time TempWeatherWind HumidityBarometerVisibility
11:20 pm
Tue, Apr 25
39 °FSprinkles. Partly cloudy.8 mph87%29.74 "Hg6 mi
10:31 pm39 °FPassing clouds.14 mph87%29.74 "Hg6 mi
10:13 pm41 °FRain showers. Passing clouds.10 mph81%29.74 "Hg2 mi
9:20 pm43 °FScattered showers. Partly cloudy.14 mph66%29.74 "HgN/A
8:50 pm43 °FPassing clouds.13 mph66%29.74 "HgN/A
8:20 pm43 °FScattered clouds.13 mph71%29.74 "HgN/A
7:20 pm45 °FPassing clouds.15 mph57%29.74 "HgN/A
6:20 pm46 °FPassing clouds.20 mph53%29.71 "HgN/A
5:20 pm45 °FPassing clouds.16 mph66%29.71 "HgN/A
4:20 pm43 °FScattered showers. Scattered clouds.17 mph61%29.74 "HgN/A
3:20 pm45 °FPassing clouds.16 mph57%29.71 "HgN/A
2:44 pm43 °FScattered clouds.16 mph71%29.71 "HgN/A
2:20 pm43 °FPartly sunny.17 mph71%29.68 "HgN/A
1:20 pm41 °FPartly sunny.17 mph76%29.68 "HgN/A
12:20 pm39 °FPartly sunny.17 mph81%29.65 "HgN/A
11:20 am39 °FBroken clouds.20 mph87%29.59 "HgN/A
10:20 am39 °FBroken clouds.20 mph87%29.59 "HgN/A
10:02 am37 °FSprinkles. Broken clouds.21 mph93%29.56 "HgN/A
8:20 am41 °FScattered clouds.16 mph87%29.56 "HgN/A
7:37 am39 °FScattered clouds.12 mph93%29.56 "HgN/A
7:20 am39 °FBroken clouds.7 mph93%29.56 "HgN/A
7:09 am39 °FLight rain. Partly sunny.7 mph93%29.56 "Hg6 mi
6:45 am39 °FLight rain. Broken clouds.8 mph87%29.56 "Hg4 mi
6:37 am37 °FRain. Fog.8 mph93%29.56 "Hg2 mi
5:36 am37 °FPartly cloudy.8 mph93%29.56 "HgN/A
5:20 am37 °FPassing clouds.8 mph93%29.59 "HgN/A
4:20 am37 °FPassing clouds.6 mph93%29.59 "HgN/A
3:20 am37 °FPassing clouds.3 mph93%29.62 "HgN/A
2:20 am39 °FPassing clouds.5 mph87%29.65 "HgN/A
1:20 am39 °FMostly cloudy.5 mph87%29.68 "HgN/A
12:47 am39 °FMostly cloudy.3 mph87%29.68 "HgN/A
12:20 am39 °FMostly cloudy.5 mph87%29.68 "HgN/A
Weather by CustomWeather, © 2017

See weather overviewHow to use our weather pages